Flag for Germany Weather past 2 weeks in Flensburg, Schleswig-Holstein, Germany

Now
45 °F

Overcast.


Feels Like: 42 °F
Forecast: 40 / 61 °F
Wind: 6 mph from East

Location: Schleswig


UV Index: 3 (Moderate)

Visibility: 13 mi


Pressure: 30.24 "Hg

Humidity: 88%

Dew point: 42 °F

Location of FlensburgLocation

Historic Weather in Flensburg

°F

Flensburg temperature yesterday

Maximum temperature yesterday: 52 °F (at 12:00 PM)
Minimum temperature yesterday: 46 °F (at 10:00 PM)
Average temperature yesterday: 49 °F

Past Weeks' High & Low Weather Summary

 TemperatureHumidityPressure
High63 °F (Apr 20, 4:00 PM)100% (Apr 12, 5:00 AM)30.47 "Hg (Apr 12, 5:00 AM)
Low33 °F (Apr 16, 6:00 AM)31% (Apr 16, 12:00 PM)29.63 "Hg (Apr 14, 7:00 AM)
Average48 °F78%30.03 "Hg
* Reported Apr 9 2:00 AM — Apr 24 2:00 AM, Flensburg, Weather by CustomWeather, © 2014

Note: Actual official high and low records may vary slightly from our data, if they occured in-between our weather recording intervals... More about our weather records

Advertising

Historic Weather Conditions — Data for Previous 24 hours

 ConditionsComfort  
Time TempWeatherWind HumidityBarometerVisibility
2:00 AM
Apr 24
45 °FOvercast.6 mph88%30.24 "Hg12 mi
1:00 AM46 °FOvercast.6 mph88%30.24 "Hg12 mi
12:00 AM46 °FOvercast.6 mph89%30.24 "Hg12 mi
10:00 PM
Apr 23
46 °FFog.6 mph95%30.22 "Hg4 mi
9:00 PM47 °FLow clouds.6 mph95%30.21 "Hg5 mi
8:00 PM48 °FFog.5 mph95%30.20 "Hg4 mi
7:00 PM49 °FLow clouds.3 mph93%30.20 "Hg6 mi
6:00 PM49 °FLow clouds.5 mph90%30.19 "Hg7 mi
5:00 PM50 °FLow clouds.5 mph88%30.19 "Hg9 mi
4:00 PM51 °FLow clouds.5 mph85%30.19 "Hg9 mi
3:00 PM51 °FLow clouds.5 mph87%30.19 "Hg9 mi
2:00 PM51 °FLow clouds.5 mph90%30.19 "Hg7 mi
1:00 PM51 °FLow clouds.5 mph90%30.18 "Hg7 mi
12:00 PM52 °FLow clouds.3 mph91%30.16 "Hg6 mi
11:00 AM49 °FLow clouds.5 mph92%30.16 "Hg5 mi
10:00 AM48 °FFog.5 mph95%30.15 "Hg4 mi
9:00 AM48 °FFog.5 mph97%30.14 "Hg2 mi
8:00 AM47 °FFog.5 mph97%30.11 "Hg2 mi
7:00 AM47 °FLow clouds.3 mph97%30.11 "Hg2 mi
6:00 AM48 °FLight rain. Low clouds.3 mph98%30.09 "Hg1 mi
5:00 AM49 °FLow clouds.3 mph97%30.08 "Hg1 mi
4:00 AM50 °FLight rain. Low clouds.3 mph98%30.06 "Hg1 mi
3:00 AM50 °FFog.2 mph98%30.05 "Hg1 mi
Weather by CustomWeather, © 2014

See weather overview